Location: Unspecified
(0.0000°N, 0.0000°E)
Time: 18:51:57
(UTC+00:00)

deb Briz - Pass Details

Date: 16 February 2026
Orbit: 1858 x 2172 km, 64.9° (Epoch: 11 March)

Event Time Altitude Azimuth Distance (km) Brightness Sun altitude
Rises 02:33:53 0° 163° (SSE) 5,475 ? -53.2°
Reaches altitude 10° 02:40:17 10° 138° (SE) 4,544 ? -51.7°
Maximum altitude 02:45:07 13° 113° (ESE) 4,327 ? -50.6°
Drops below altitude 10° 02:49:59 10° 88° (E) 4,631 ? -49.4°
Sets 02:56:29 0° 64° (ENE) 5,672 ? -47.9°
